Location: Donzy-le-Pr�
(47.3659°N, 3.1107°E)
Time: 08:40:39
(UTC+00:00)

SAR-Lupe-4 - Pass Details

Date: 03 March 2021
Orbit: 481 x 485 km, 98.2° (Epoch: 26 March)

Event Time Altitude Azimuth Distance (km) Brightness Sun altitude
Rises 18:05:28 0° 24° (NNE) 2,554 7.0 -5.8°
Reaches altitude 10° 18:07:45 10° 37° (NE) 1,669 5.9 -6.2°
Maximum altitude 18:10:52 27° 97° (E) 950 4.5 -6.7°
Drops below altitude 10° 18:13:57 10° 157° (SSE) 1,657 6.1 -7.3°
Sets 18:16:13 0° 170° (S) 2,532 7.1 -7.6°
